Hourly Data Report for October 15, 2015

All times are specified in Local Standard Time (LST). Add 1 hour to adjust for Daylight Saving Time where and when it is observed.

OTTAWA INTL A
ONTARIO

45°19'00.000" N
75°40'00.000" W
114.90 m
6106001
71628
YOW

Download Data

Hourly Data (October 2015)
Hourly Data Report for October 15, 2015
Temp Definition
°C
Dew Point Temp Definition
°C
Rel Hum Definition
%
Wind Dir Definition
10's deg

Wind Spd Definition
km/h
Visibility Definition
km
Stn Press Definition
kPa
Hmdx Definition


Wind Chill Definition


Weather Definition


TIME
00:00 Legend Double Dagger 1.2 -0.4 89 21 7 24.1 99.70     LegendNANA
01:00 Legend Double Dagger 1.0 -0.5 90 22 11 24.1 99.71     Clear
02:00 Legend Double Dagger 0.0 -0.7 95 19 4 24.1 99.69   -1 LegendNANA
03:00 Legend Double Dagger 1.1 -0.4 90 19 10 24.1 99.68     LegendNANA
04:00 Legend Double Dagger 1.7 0.2 90 19 10 24.1 99.65     Mostly Cloudy
05:00 Legend Double Dagger 2.5 1.2 91 20 8 24.1 99.65     LegendNANA
06:00 Legend Double Dagger 3.4 2.2 92 20 10 24.1 99.64     LegendNANA
07:00 Legend Double Dagger 4.6 3.4 92 20 13 24.1 99.64     Mostly Cloudy
08:00 Legend Double Dagger 5.4 4.2 92 21 13 24.1 99.66     Rain
09:00 Legend Double Dagger 8.0 5.8 86 22 14 24.1 99.66     LegendNANA
10:00 Legend Double Dagger 10.2 5.6 73 24 26 24.1 99.66     Mostly Cloudy
11:00 Legend Double Dagger 11.1 6.3 72 25 22 24.1 99.65     LegendNANA
12:00 Legend Double Dagger 12.4 6.9 69 24 20 24.1 99.57     LegendNANA
13:00 Legend Double Dagger 14.5 6.7 59 23 22 24.1 99.47     Mainly Clear
14:00 Legend Double Dagger 14.1 6.5 60 23 17 24.1 99.39     LegendNANA
15:00 Legend Double Dagger 14.2 7.3 63 20 18 24.1 99.33     LegendNANA
16:00 Legend Double Dagger 9.1 7.7 91 29 17 24.1 99.39     Thunderstorms,Rain
17:00 Legend Double Dagger 8.9 8.0 94 31 10 16.1 99.40     Rain
18:00 Legend Double Dagger 8.3 7.7 96 12 10 24.1 99.31     LegendNANA
19:00 Legend Double Dagger 8.4 8.0 97 14 9 24.1 99.33     Cloudy
20:00 Legend Double Dagger 8.6 8.0 96 15 16 16.1 99.17     LegendNANA
21:00 Legend Double Dagger 8.1 6.1 87 24 12 24.1 99.12     LegendNANA
22:00 Legend Double Dagger 8.1 6.7 91 23 22 24.1 99.11     Cloudy
23:00 Legend Double Dagger 7.2 4.9 85 26 31 24.1 99.21     LegendNANA

Notes on Data Quality.

Legend

  • E = Estimated
  • M = Missing
  • NA = Not Available
  • ‡ = Partner data that is not subject to review by the National Climate Archives
Date modified: